TVS1DE LKPR-LDSP

Flight info

Callsign TVS1DE
Flight time 1h 20m
Altitude 33000
Route VOZ DCT PISAM DCT PETOV DCT NIVES DCT NUPSO
Aircraft B738/M-SDFGHIJ1LORVWXYZ/LB1

Departure

Time 2026-05-07 15:06
Airport Václav Havel Airport Prague (LKPR)

Arrival

Time 2026-05-07 16:26
Airport Split Saint Jerome Airport (LDSP)
Time Latitude Longitude Altitude Speed Heading
2026-05-07 14:39 50.10485 14.26480 1173 ft 0 kts 34°
2026-05-07 14:54 50.10471 14.26464 1170 ft 4 kts 44°
2026-05-07 14:54 50.10457 14.26433 1169 ft 4 kts 93°
2026-05-07 14:55 50.10460 14.26415 1170 ft 0 kts 124°
2026-05-07 14:58 50.10460 14.26416 1170 ft 1 kts 124°
2026-05-07 14:58 50.10426 14.26493 1170 ft 14 kts 124°
2026-05-07 14:58 50.10368 14.26612 1173 ft 12 kts 150°
2026-05-07 14:59 50.10294 14.26564 1171 ft 12 kts 214°
2026-05-07 14:59 50.10223 14.26550 1175 ft 12 kts 136°
2026-05-07 14:59 50.10154 14.26692 1176 ft 22 kts 127°
2026-05-07 14:59 50.10046 14.26914 1191 ft 29 kts 127°
2026-05-07 15:00 50.09927 14.27160 1200 ft 27 kts 126°
2026-05-07 15:00 50.09808 14.27381 1203 ft 26 kts 135°
2026-05-07 15:00 50.09685 14.27570 1205 ft 24 kts 135°
2026-05-07 15:00 50.09570 14.27747 1210 ft 23 kts 135°
2026-05-07 15:01 50.09459 14.27917 1214 ft 22 kts 135°
2026-05-07 15:01 50.09350 14.28082 1214 ft 21 kts 136°
2026-05-07 15:01 50.09271 14.28205 1213 ft 11 kts 135°
2026-05-07 15:01 50.09208 14.28280 1211 ft 12 kts 160°
2026-05-07 15:02 50.09149 14.28267 1210 ft 0 kts 212°
2026-05-07 15:03 50.09122 14.28237 1210 ft 13 kts 217°
2026-05-07 15:03 50.09061 14.28157 1208 ft 5 kts 250°
2026-05-07 15:04 50.09071 14.28115 1207 ft 0 kts 306°
2026-05-07 15:05 50.09071 14.28114 1207 ft 2 kts 306°
2026-05-07 15:05 50.09167 14.27913 1211 ft 54 kts 307°
2026-05-07 15:05 50.09529 14.27164 1205 ft 117 kts 306°
2026-05-07 15:05 50.10109 14.25918 1243 ft 162 kts 298°
2026-05-07 15:06 50.10774 14.24457 1753 ft 173 kts 303°
2026-05-07 15:06 50.11486 14.22991 2662 ft 164 kts 304°
2026-05-07 15:06 50.12167 14.21617 3451 ft 163 kts 303°
2026-05-07 15:06 50.12917 14.20088 3685 ft 192 kts 304°
2026-05-07 15:07 50.13769 14.18346 3890 ft 214 kts 304°
2026-05-07 15:07 50.14719 14.16390 4088 ft 238 kts 304°
2026-05-07 15:07 50.15745 14.14268 4568 ft 250 kts 304°
2026-05-07 15:07 50.16803 14.12072 5206 ft 256 kts 304°
2026-05-07 15:08 50.17823 14.09786 5893 ft 257 kts 293°
2026-05-07 15:08 50.18184 14.07085 6577 ft 258 kts 265°
2026-05-07 15:08 50.17700 14.04415 7283 ft 259 kts 241°
2026-05-07 15:08 50.16562 14.02253 8044 ft 262 kts 218°
2026-05-07 15:09 50.14893 14.01030 8691 ft 271 kts 193°
2026-05-07 15:09 50.13013 14.01017 9588 ft 276 kts 171°
2026-05-07 15:09 50.11225 14.02199 10251 ft 288 kts 148°
2026-05-07 15:09 50.09616 14.04282 10468 ft 313 kts 140°
2026-05-07 15:10 50.07988 14.06696 10677 ft 335 kts 138°
2026-05-07 15:10 50.06304 14.09277 11226 ft 343 kts 138°
2026-05-07 15:10 50.04597 14.11900 11963 ft 346 kts 138°
2026-05-07 15:10 50.02876 14.14528 12755 ft 348 kts 139°
2026-05-07 15:11 50.01136 14.17159 13541 ft 351 kts 139°
2026-05-07 15:11 49.99375 14.19804 14259 ft 354 kts 139°
2026-05-07 15:11 49.97616 14.22431 14931 ft 358 kts 139°
2026-05-07 15:11 49.95807 14.25121 15612 ft 362 kts 140°
2026-05-07 15:12 49.93981 14.27830 16343 ft 365 kts 140°
2026-05-07 15:12 49.92133 14.30565 17035 ft 369 kts 140°
2026-05-07 15:12 49.90268 14.33325 17701 ft 373 kts 140°
2026-05-07 15:12 49.88380 14.36113 18355 ft 377 kts 140°
2026-05-07 15:13 49.86471 14.38926 18937 ft 380 kts 140°
2026-05-07 15:13 49.84548 14.41759 19534 ft 384 kts 140°
2026-05-07 15:13 49.82603 14.44619 20129 ft 387 kts 140°
2026-05-07 15:13 49.80641 14.47505 20717 ft 391 kts 140°
2026-05-07 15:14 49.78663 14.50409 21302 ft 394 kts 140°
2026-05-07 15:14 49.76667 14.53336 21864 ft 397 kts 140°
2026-05-07 15:14 49.74649 14.56291 22421 ft 401 kts 140°
2026-05-07 15:14 49.72613 14.59269 22939 ft 404 kts 140°
2026-05-07 15:15 49.70570 14.62255 23492 ft 407 kts 140°
2026-05-07 15:15 49.68500 14.65276 23896 ft 411 kts 140°
2026-05-07 15:15 49.66415 14.68315 24380 ft 413 kts 140°
2026-05-07 15:15 49.64326 14.71358 24884 ft 414 kts 141°
2026-05-07 15:16 49.62229 14.74408 25352 ft 415 kts 141°
2026-05-07 15:16 49.60120 14.77472 25792 ft 417 kts 141°
2026-05-07 15:16 49.58002 14.80545 26218 ft 420 kts 141°
2026-05-07 15:16 49.55869 14.83635 26645 ft 422 kts 141°
2026-05-07 15:17 49.53695 14.86680 27058 ft 422 kts 145°
2026-05-07 15:17 49.51288 14.89221 27450 ft 418 kts 155°
2026-05-07 15:17 49.48715 14.91304 27876 ft 419 kts 157°
2026-05-07 15:17 49.46131 14.93348 28420 ft 415 kts 158°
2026-05-07 15:18 49.43570 14.95375 28936 ft 415 kts 158°
2026-05-07 15:18 49.41021 14.97398 29165 ft 419 kts 158°
2026-05-07 15:18 49.38421 14.99474 29409 ft 423 kts 158°
2026-05-07 15:18 49.35811 15.01568 29771 ft 424 kts 157°
2026-05-07 15:19 49.33194 15.03675 30146 ft 425 kts 157°
2026-05-07 15:19 49.30576 15.05783 30433 ft 426 kts 157°
2026-05-07 15:19 49.27944 15.07901 30704 ft 428 kts 157°
2026-05-07 15:19 49.25303 15.10024 31004 ft 429 kts 157°
2026-05-07 15:20 49.22665 15.12142 31341 ft 429 kts 157°
2026-05-07 15:20 49.20018 15.14265 31644 ft 430 kts 157°
2026-05-07 15:20 49.17365 15.16388 31891 ft 432 kts 157°
2026-05-07 15:20 49.14699 15.18519 32162 ft 433 kts 156°
2026-05-07 15:21 49.12060 15.20628 32516 ft 431 kts 157°
2026-05-07 15:21 49.09410 15.22743 32908 ft 429 kts 157°
2026-05-07 15:21 49.04082 15.26980 32958 ft 438 kts 157°
2026-05-07 15:22 48.98705 15.31254 32943 ft 432 kts 157°
2026-05-07 15:22 48.93401 15.35459 32961 ft 430 kts 157°
2026-05-07 15:23 48.87940 15.39010 32958 ft 424 kts 169°
2026-05-07 15:23 48.82161 15.40519 32956 ft 422 kts 175°
2026-05-07 15:24 48.76338 15.41838 32956 ft 424 kts 175°
2026-05-07 15:24 48.70507 15.43192 32952 ft 423 kts 175°
2026-05-07 15:25 48.64697 15.44564 32956 ft 422 kts 175°
2026-05-07 15:25 48.58897 15.45939 32956 ft 421 kts 175°
2026-05-07 15:26 48.53116 15.47309 32948 ft 419 kts 175°
2026-05-07 15:26 48.47362 15.48668 32959 ft 418 kts 175°
2026-05-07 15:27 48.41629 15.50018 32960 ft 416 kts 175°
2026-05-07 15:27 48.35912 15.51359 32957 ft 415 kts 175°
2026-05-07 15:28 48.30210 15.52696 32960 ft 415 kts 175°
2026-05-07 15:28 48.24497 15.54031 32955 ft 416 kts 175°
2026-05-07 15:29 48.18771 15.55368 32970 ft 417 kts 175°
2026-05-07 15:29 48.13040 15.56703 32958 ft 417 kts 176°
2026-05-07 15:30 48.07313 15.58035 32971 ft 417 kts 176°
2026-05-07 15:30 48.01585 15.59363 32979 ft 416 kts 176°
2026-05-07 15:31 47.95870 15.60686 32984 ft 415 kts 175°
2026-05-07 15:31 47.90210 15.61987 32966 ft 413 kts 176°
2026-05-07 15:32 47.84554 15.63287 32979 ft 410 kts 175°
2026-05-07 15:32 47.78928 15.64585 32985 ft 409 kts 176°
2026-05-07 15:33 47.73301 15.65878 32994 ft 409 kts 176°
2026-05-07 15:33 47.67674 15.67165 32989 ft 409 kts 176°
2026-05-07 15:34 47.62041 15.68460 32952 ft 409 kts 176°
2026-05-07 15:34 47.56418 15.69738 32940 ft 409 kts 176°
2026-05-07 15:35 47.50780 15.71012 32964 ft 411 kts 176°
2026-05-07 15:35 47.45135 15.72291 32969 ft 412 kts 176°
2026-05-07 15:36 47.39463 15.73575 32965 ft 412 kts 176°
2026-05-07 15:36 47.33789 15.74857 32938 ft 413 kts 176°
2026-05-07 15:37 47.28100 15.76138 32936 ft 414 kts 176°
2026-05-07 15:37 47.22396 15.77421 32942 ft 415 kts 176°
2026-05-07 15:38 47.17650 15.78486 32935 ft 416 kts 176°
2026-05-07 15:38 47.10980 15.79979 32911 ft 417 kts 176°
2026-05-07 15:39 47.05232 15.81263 32912 ft 418 kts 176°
2026-05-07 15:39 46.99482 15.82545 32920 ft 418 kts 176°
2026-05-07 15:40 46.94694 15.83610 32919 ft 419 kts 176°
2026-05-07 15:40 46.88925 15.84890 32906 ft 420 kts 176°
2026-05-07 15:41 46.83152 15.86169 32926 ft 420 kts 176°
2026-05-07 15:41 46.77367 15.87448 32924 ft 421 kts 177°
2026-05-07 15:42 46.71572 15.88726 32929 ft 421 kts 176°
2026-05-07 15:42 46.65777 15.90002 32925 ft 421 kts 177°
2026-05-07 15:43 46.59979 15.91275 32944 ft 422 kts 177°
2026-05-07 15:43 46.54165 15.92549 32946 ft 423 kts 177°
2026-05-07 15:44 46.48345 15.93821 32928 ft 423 kts 177°
2026-05-07 15:44 46.42525 15.95092 32950 ft 423 kts 178°
2026-05-07 15:45 46.36704 15.96360 32957 ft 423 kts 178°
2026-05-07 15:45 46.30876 15.97537 32958 ft 420 kts 182°
2026-05-07 15:46 46.22213 15.97086 32958 ft 415 kts 188°
2026-05-07 15:47 46.16440 15.96672 32967 ft 416 kts 188°
2026-05-07 15:47 46.10658 15.96287 32967 ft 416 kts 188°
2026-05-07 15:48 46.04864 15.95912 32957 ft 417 kts 189°
2026-05-07 15:48 45.99099 15.95544 32976 ft 417 kts 189°
2026-05-07 15:49 45.93302 15.95174 32997 ft 417 kts 189°
2026-05-07 15:49 45.87485 15.94815 32745 ft 421 kts 188°
2026-05-07 15:49 45.84621 15.94646 32357 ft 413 kts 188°
2026-05-07 15:50 45.81782 15.94492 32010 ft 404 kts 188°
2026-05-07 15:50 45.79010 15.94346 31660 ft 395 kts 188°
2026-05-07 15:50 45.76294 15.94201 31337 ft 387 kts 188°
2026-05-07 15:50 45.73609 15.94052 31017 ft 386 kts 188°
2026-05-07 15:51 45.70923 15.93897 30705 ft 388 kts 188°
2026-05-07 15:51 45.68224 15.93740 30397 ft 389 kts 188°
2026-05-07 15:51 45.65527 15.93585 30056 ft 386 kts 188°
2026-05-07 15:51 45.62847 15.93433 29576 ft 386 kts 188°
2026-05-07 15:52 45.60162 15.93281 29103 ft 385 kts 188°
2026-05-07 15:52 45.57491 15.93131 28640 ft 384 kts 188°
2026-05-07 15:52 45.54834 15.92982 28173 ft 379 kts 188°
2026-05-07 15:52 45.52210 15.92837 27719 ft 374 kts 188°
2026-05-07 15:53 45.49626 15.92693 27272 ft 370 kts 188°
2026-05-07 15:53 45.47070 15.92551 26820 ft 366 kts 188°
2026-05-07 15:53 45.44537 15.92409 26370 ft 362 kts 188°
2026-05-07 15:53 45.42031 15.92268 25952 ft 361 kts 188°
2026-05-07 15:54 45.39517 15.92124 25536 ft 363 kts 188°
2026-05-07 15:54 45.36989 15.91979 25122 ft 364 kts 188°
2026-05-07 15:54 45.34462 15.91836 24713 ft 363 kts 188°
2026-05-07 15:54 45.31947 15.91695 24319 ft 361 kts 188°
2026-05-07 15:55 45.29458 15.91557 23960 ft 359 kts 188°
2026-05-07 15:55 45.26933 15.91413 23544 ft 368 kts 188°
2026-05-07 15:55 45.24368 15.91267 22984 ft 368 kts 188°
2026-05-07 15:55 45.21816 15.91125 22449 ft 366 kts 188°
2026-05-07 15:56 45.19276 15.90985 21920 ft 364 kts 188°
2026-05-07 15:56 45.16753 15.90847 21404 ft 363 kts 188°
2026-05-07 15:56 45.14238 15.90708 20891 ft 361 kts 187°
2026-05-07 15:56 45.11729 15.90569 20422 ft 359 kts 187°
2026-05-07 15:57 45.09248 15.90585 20140 ft 355 kts 182°
2026-05-07 15:57 45.06798 15.90732 19855 ft 348 kts 185°
2026-05-07 15:57 45.04402 15.90675 19592 ft 344 kts 187°
2026-05-07 15:57 45.02026 15.90530 19338 ft 338 kts 188°
2026-05-07 15:58 44.99685 15.90364 19094 ft 338 kts 188°
2026-05-07 15:58 44.97339 15.90197 18864 ft 338 kts 188°
2026-05-07 15:58 44.94989 15.90036 18633 ft 338 kts 188°
2026-05-07 15:58 44.92635 15.89884 18399 ft 338 kts 187°
2026-05-07 15:59 44.90291 15.89738 18168 ft 337 kts 187°
2026-05-07 15:59 44.87980 15.89598 17932 ft 336 kts 187°
2026-05-07 15:59 44.85645 15.89460 17693 ft 335 kts 187°
2026-05-07 15:59 44.83287 15.89322 17447 ft 335 kts 187°
2026-05-07 16:00 44.80993 15.89188 17212 ft 334 kts 187°
2026-05-07 16:00 44.78679 15.89055 16976 ft 333 kts 186°
2026-05-07 16:00 44.76367 15.88922 16744 ft 331 kts 187°
2026-05-07 16:00 44.74068 15.88790 16514 ft 330 kts 187°
2026-05-07 16:01 44.71784 15.88660 16278 ft 329 kts 187°
2026-05-07 16:01 44.69505 15.88530 16041 ft 327 kts 186°
2026-05-07 16:01 44.67244 15.88390 15812 ft 324 kts 187°
2026-05-07 16:01 44.64997 15.88219 15605 ft 323 kts 186°
2026-05-07 16:02 44.62754 15.88093 15393 ft 323 kts 186°
2026-05-07 16:02 44.60508 15.87976 15153 ft 323 kts 186°
2026-05-07 16:02 44.58273 15.87862 14939 ft 321 kts 186°
2026-05-07 16:02 44.56043 15.87746 14733 ft 320 kts 186°
2026-05-07 16:03 44.53815 15.87625 14533 ft 320 kts 186°
2026-05-07 16:03 44.51585 15.87503 14313 ft 322 kts 186°
2026-05-07 16:03 44.49344 15.87377 14102 ft 322 kts 186°
2026-05-07 16:03 44.47108 15.87250 13896 ft 322 kts 186°
2026-05-07 16:04 44.44873 15.87123 13678 ft 322 kts 186°
2026-05-07 16:04 44.42631 15.86996 13441 ft 321 kts 186°
2026-05-07 16:04 44.40399 15.86870 13183 ft 320 kts 186°
2026-05-07 16:04 44.38188 15.86724 12929 ft 316 kts 187°
2026-05-07 16:05 44.36020 15.86427 12707 ft 311 kts 189°
2026-05-07 16:05 44.33883 15.86069 12464 ft 309 kts 190°
2026-05-07 16:05 44.31763 15.85702 12339 ft 309 kts 190°
2026-05-07 16:05 44.29550 15.85316 12184 ft 328 kts 190°
2026-05-07 16:06 44.27259 15.84926 12001 ft 333 kts 190°
2026-05-07 16:06 44.24954 15.84539 11819 ft 335 kts 189°
2026-05-07 16:06 44.22640 15.84161 11647 ft 335 kts 189°
2026-05-07 16:06 44.20328 15.83791 11467 ft 334 kts 189°
2026-05-07 16:07 44.18021 15.83424 11291 ft 333 kts 189°
2026-05-07 16:07 44.15720 15.83057 11115 ft 333 kts 189°
2026-05-07 16:07 44.13422 15.82691 10943 ft 332 kts 189°
2026-05-07 16:07 44.11133 15.82327 10777 ft 331 kts 189°
2026-05-07 16:08 44.08851 15.81965 10607 ft 331 kts 189°
2026-05-07 16:08 44.06562 15.81601 10431 ft 331 kts 189°
2026-05-07 16:08 44.04279 15.81239 10261 ft 330 kts 189°
2026-05-07 16:08 44.02004 15.80879 10097 ft 329 kts 189°
2026-05-07 16:09 43.99735 15.80520 9934 ft 328 kts 189°
2026-05-07 16:09 43.97470 15.80161 9751 ft 328 kts 189°
2026-05-07 16:09 43.95205 15.79804 9575 ft 328 kts 189°
2026-05-07 16:09 43.92936 15.79444 9390 ft 328 kts 189°
2026-05-07 16:10 43.90675 15.79084 9195 ft 326 kts 188°
2026-05-07 16:10 43.88436 15.78731 9060 ft 325 kts 188°
2026-05-07 16:10 43.86195 15.78380 8906 ft 323 kts 189°
2026-05-07 16:10 43.83973 15.78029 8751 ft 322 kts 188°
2026-05-07 16:11 43.81749 15.77679 8598 ft 320 kts 189°
2026-05-07 16:11 43.79548 15.77333 8448 ft 318 kts 188°
2026-05-07 16:11 43.77355 15.76988 8291 ft 317 kts 188°
2026-05-07 16:11 43.75163 15.76643 8150 ft 319 kts 190°
2026-05-07 16:12 43.72953 15.76295 7994 ft 321 kts 188°
2026-05-07 16:12 43.70739 15.75947 7840 ft 319 kts 188°
2026-05-07 16:12 43.68534 15.75602 7695 ft 319 kts 189°
2026-05-07 16:12 43.66345 15.75258 7549 ft 318 kts 187°
2026-05-07 16:13 43.64145 15.74914 7411 ft 319 kts 189°
2026-05-07 16:13 43.61940 15.74569 7268 ft 319 kts 189°
2026-05-07 16:13 43.59732 15.74224 7104 ft 319 kts 188°
2026-05-07 16:13 43.57523 15.73879 6914 ft 320 kts 188°
2026-05-07 16:14 43.55311 15.73534 6707 ft 320 kts 187°
2026-05-07 16:14 43.53093 15.73188 6499 ft 321 kts 188°
2026-05-07 16:14 43.50907 15.72848 6288 ft 320 kts 187°
2026-05-07 16:14 43.48696 15.72504 6070 ft 319 kts 187°
2026-05-07 16:15 43.46497 15.72162 5860 ft 317 kts 187°
2026-05-07 16:15 43.44291 15.71819 5634 ft 314 kts 187°
2026-05-07 16:15 43.42158 15.71487 5426 ft 312 kts 187°
2026-05-07 16:15 43.40006 15.71153 5218 ft 311 kts 187°
2026-05-07 16:16 43.37864 15.70820 5002 ft 309 kts 187°
2026-05-07 16:16 43.35725 15.70489 4784 ft 309 kts 187°
2026-05-07 16:16 43.33589 15.70299 4556 ft 309 kts 175°
2026-05-07 16:16 43.31556 15.71150 4335 ft 304 kts 152°
2026-05-07 16:17 43.29993 15.72958 4099 ft 288 kts 128°
2026-05-07 16:17 43.29111 15.75327 3844 ft 275 kts 105°
2026-05-07 16:17 43.28908 15.77871 3601 ft 264 kts 89°
2026-05-07 16:17 43.29223 15.80292 3346 ft 259 kts 70°
2026-05-07 16:18 43.30060 15.82491 3127 ft 261 kts 60°
2026-05-07 16:18 43.31045 15.84592 2900 ft 259 kts 60°
2026-05-07 16:18 43.32028 15.86622 2827 ft 250 kts 62°
2026-05-07 16:18 43.32962 15.88544 2768 ft 232 kts 60°
2026-05-07 16:19 43.33823 15.90325 2756 ft 215 kts 64°
2026-05-07 16:19 43.34633 15.92014 2764 ft 209 kts 63°
2026-05-07 16:19 43.35426 15.93684 2775 ft 210 kts 61°
2026-05-07 16:19 43.36229 15.95375 2793 ft 212 kts 62°
2026-05-07 16:20 43.37038 15.97082 2790 ft 214 kts 62°
2026-05-07 16:20 43.37851 15.98796 2796 ft 214 kts 64°
2026-05-07 16:20 43.38660 16.00513 2795 ft 213 kts 61°
2026-05-07 16:20 43.39460 16.02205 2784 ft 209 kts 64°
2026-05-07 16:21 43.40244 16.03864 2779 ft 204 kts 64°
2026-05-07 16:21 43.41011 16.05489 2778 ft 203 kts 62°
2026-05-07 16:21 43.41776 16.07114 2795 ft 203 kts 62°
2026-05-07 16:21 43.42531 16.08776 2790 ft 207 kts 66°
2026-05-07 16:22 43.43288 16.10478 2812 ft 210 kts 63°
2026-05-07 16:22 43.44116 16.12101 2794 ft 204 kts 60°
2026-05-07 16:22 43.44942 16.13608 2722 ft 193 kts 58°
2026-05-07 16:22 43.45742 16.15054 2489 ft 189 kts 57°
2026-05-07 16:23 43.46514 16.16447 2267 ft 175 kts 60°
2026-05-07 16:23 43.47225 16.17733 2032 ft 163 kts 61°
2026-05-07 16:23 43.47892 16.18941 1806 ft 154 kts 59°
2026-05-07 16:23 43.48522 16.20084 1606 ft 144 kts 60°
2026-05-07 16:24 43.49102 16.21138 1418 ft 142 kts 58°
2026-05-07 16:24 43.49712 16.22245 1228 ft 150 kts 53°
2026-05-07 16:24 43.50345 16.23382 1033 ft 149 kts 53°
2026-05-07 16:24 43.50970 16.24511 831 ft 147 kts 53°
2026-05-07 16:25 43.51580 16.25611 637 ft 142 kts 53°
2026-05-07 16:25 43.52183 16.26702 460 ft 144 kts 57°
2026-05-07 16:25 43.52795 16.27808 266 ft 147 kts 53°
2026-05-07 16:25 43.53412 16.28916 88 ft 145 kts 54°
2026-05-07 16:26 43.53960 16.29912 65 ft 106 kts 53°
2026-05-07 16:26 43.54276 16.30489 52 ft 45 kts 52°
2026-05-07 16:26 43.54380 16.30674 51 ft 19 kts 53°
2026-05-07 16:26 43.54404 16.30722 52 ft 4 kts
2026-05-07 16:27 43.54406 16.30699 52 ft 4 kts 229°
2026-05-07 16:27 43.54372 16.30647 49 ft 13 kts 228°
2026-05-07 16:27 43.54297 16.30523 53 ft 19 kts 233°
2026-05-07 16:27 43.54210 16.30366 55 ft 23 kts 232°
2026-05-07 16:28 43.54111 16.30188 61 ft 23 kts 232°
2026-05-07 16:28 43.53977 16.30088 58 ft 23 kts 195°
2026-05-07 16:28 43.53870 16.29994 67 ft 7 kts 231°
2026-05-07 16:28 43.53847 16.30004 67 ft 3 kts 110°
2026-05-07 16:29 43.53837 16.30035 67 ft 4 kts 114°
2026-05-07 16:29 43.53830 16.30055 62 ft 0 kts 114°